{"data":{"norad_id":48234,"epoch":"2026-09-19T19:10:37.474176Z","epoch_age_seconds":82572,"freshness":"FRESH","line1":"1 48234U 21031AA  26262.79904484  .00000060  00000+0  12757-3 0  9991","line2":"2 48234  87.8905 270.8303 0002144  87.4207 272.7169 13.14502777260696","mean_motion":13.14502777,"eccentricity":0.0002144,"inclination_deg":87.8905,"raan_deg":270.8303,"arg_perigee_deg":87.4207,"mean_anomaly_deg":272.7169,"bstar":0.00012757,"rev_number":26069,"period_min":109.54712498108,"perigee_km":1204.1644490647,"apogee_km":1207.4164371523,"semimajor_km":7583.9274431085,"source":"CELESTRAK","updated_at":"2026-09-20T09:00:44.597336Z"}}